SCP
0 0 0 0 -0 -0 0 0 0 0 0 0 0 0 0 0 0 -0 0 0 0 -0 -0 0 0 0 0 0 0 0 0 0
0 -0 0 0 0 0 0 0 0 0 0 0 0 0 0 0 0 1 0 1 0 -0 0 0 0 0 0 0 0 0 0 0
0 0 0 0 0 0 0 0 0 0 0 0 0 0 0 0 0 1 1 1 1 1 0 0 0 0 0 0 0 0 0 0
0 0 0 0 0 0 0 0 0 0 0 0 0 0 0 0 0 1 1 1 1 1 1 0 0 0 0 0 0 0 0 0
0 0 0 0 0 0 0 0 0 0 0 0 0 0 0 0 1 1 1 1 1 1 1 1 1 0 0 0 0 0 0 0
-0 0 0 0 0 0 0 0 0 0 0 0 0 0 0 0 1 1 1 1 1 1 1 1 1 1 0 0 0 0 0 0
0 0 0 0 0 0 0 0 0 0 0 0 0 0 0 0 0 2 1 1 1 1 1 1 1 1 0 0 0 0 0 0
0 0 0 -0 0 0 0 0 0 0 0 0 0 0 0 0 0 0 1 1 0 0 0 1 1 0 0 0 1 0 0 0
0 0 0 -0 0 0 0 0 0 0 0 0 0 0 0 0 0 0 1 1 0 0 0 0 1 1 1 1 0 0 0 0
0 0 0 0 0 0 0 0 0 0 0 0 0 0 0 0 0 0 0 3 2 0 0 0 1 1 1 0 0 0 0 0
0 0 0 0 0 0 0 0 0 0 0 0 0 0 0 0 0 0 0 1 2 1 1 1 0 0 0 0 0 0 0 0
0 0 -0 -0 -0 0 0 -0 -0 0 0 0 0 0 0 0 0 0 0 1 1 1 0 0 0 0 0 0 0 0 0 0
0 0 0 0 0 0 0 0 0 0 0 0 0 0 0 0 0 0 0 0 0 0 0 1 1 0 0 0 0 0 0 0
0 0 0 0 0 0 0 0 0 0 0 0 0 0 0 0 0 0 0 0 2 2 2 2 2 1 0 0 0 0 0 0
0 -0 0 0 0 0 0 0 0 0 0 0 0 0 0 0 0 0 0 0 0 2 2 2 1 2 0 0 0 0 0 0
0 0 0 0 0 0 0 0 0 0 0 0 0 0 0 0 0 0 0 0 0 0 2 2 2 2 2 1 1 1 1 0
0 0 0 0 0 0 0 0 -0 0 0 0 0 0 0 0 0 0 0 0 0 0 0 3 3 2 2 2 1 1 1 0
0 0 0 0 0 -0 0 0 0 0 0 0 0 0 0 0 0 0 0 0 0 0 0 1 4 3 2 2 1 2 1 0
0 0 0 0 0 0 -0 -0 -0 -0 0 0 0 0 0 0 0 0 0 0 0 0 0 0 3 5 3 1 1 1 2 1
0 0 0 0 0 -0 0 0 0 0 0 0 0 0 0 0 0 0 0 0 0 0 0 0 1 4 2 2 1 1 1 1
Wind_Speed_500mb
8 6 11 10 10 6 17 32 31 11 21 24 21 27 19 19 11 12 7 6 25 35 38 38 39 41 39 36 35 37 36 35
3 16 23 26 31 14 7 18 13 14 14 25 22 24 17 24 9 12 16 13 13 35 38 38 39 43 42 39 40 38 36 33
5 17 23 27 41 9 9 10 26 23 15 25 34 32 26 19 17 7 25 25 16 32 41 41 41 42 42 38 38 40 36 32
9 20 20 21 29 15 10 13 42 28 11 16 38 28 26 11 3 7 23 27 21 21 42 43 40 42 45 40 37 39 37 33
16 21 23 17 23 19 16 21 29 28 7 34 39 20 10 14 8 6 20 27 22 20 41 43 41 41 43 43 40 40 38 35
14 14 17 37 18 22 37 12 28 31 10 6 36 25 14 3 16 6 18 26 19 14 30 47 45 42 44 45 41 40 39 36
12 8 16 35 21 37 18 18 22 17 24 41 38 30 16 18 10 16 24 34 24 20 22 49 46 46 46 47 45 43 42 38
10 14 12 20 28 37 27 27 14 29 28 26 25 14 16 14 19 13 26 38 29 25 25 50 49 48 48 50 52 51 48 43
25 39 23 24 20 34 24 14 29 24 33 24 24 24 24 23 25 28 23 39 32 27 34 52 54 50 51 55 57 56 53 48
34 40 24 18 43 19 34 34 42 43 41 42 29 20 29 29 24 33 29 44 39 33 31 43 49 49 52 56 59 59 57 51
38 38 34 34 27 31 38 42 45 44 43 41 31 27 27 30 28 31 9 18 34 34 36 36 47 40 39 52 60 61 61 56
39 45 43 27 33 30 38 47 48 44 45 33 34 27 32 34 34 40 13 8 16 22 37 42 50 47 48 44 54 61 64 60
40 41 26 50 12 15 51 58 34 14 9 15 26 28 30 24 14 23 33 16 17 22 29 43 54 46 58 52 49 51 59 60
21 15 16 16 14 24 26 25 13 16 22 25 30 28 25 28 29 20 23 29 23 25 29 38 53 59 53 58 57 54 55 57
17 24 15 6 18 14 34 36 39 33 37 42 42 41 42 44 37 38 36 31 37 30 43 43 42 75 60 60 68 66 63 60
18 22 27 26 28 26 46 31 37 37 50 53 52 51 44 48 33 35 38 45 51 45 52 60 56 47 67 76 71 75 78 74
27 26 13 14 21 25 42 42 39 49 46 42 41 35 31 37 33 35 43 40 48 48 51 63 61 56 69 76 75 81 77 82
14 18 24 25 35 34 40 44 58 57 55 50 42 32 27 32 28 32 45 46 47 51 52 51 67 69 63 82 82 74 79 85
22 25 22 24 24 17 36 42 48 69 51 36 31 29 28 23 29 33 27 35 43 51 57 62 67 74 70 69 76 93 74 84
28 22 20 4 32 19 19 16 31 36 32 25 18 21 28 28 35 30 32 40 51 57 62 66 58 76 73 78 77 91 99 83
Wind_Direction_500mb
153 189 215 251 273 312 57 53 28 44 49 77 110 92 108 77 114 154 175 185 196 185 177 174 171 168 164 159 166 166 165 160
76 271 265 254 285 295 23 56 74 33 46 77 99 92 102 134 135 186 194 194 163 201 189 181 178 176 173 168 169 172 171 169
276 265 264 273 262 222 64 25 20 96 71 106 106 95 101 81 138 230 189 186 183 200 198 188 185 183 179 178 174 173 175 175
259 266 272 278 279 119 97 42 23 36 88 75 99 99 79 42 136 133 200 193 193 181 200 195 188 186 184 183 181 178 177 180
274 289 307 314 46 43 39 31 49 25 67 85 64 54 80 26 217 215 213 205 193 187 196 198 188 188 188 187 188 185 183 184
283 279 291 10 12 45 41 10 20 23 20 254 352 15 8 261 223 187 223 197 215 212 203 197 189 187 190 192 193 192 191 192
266 342 292 6 11 14 28 19 349 356 322 312 326 332 333 306 306 183 200 205 222 231 216 201 195 190 190 193 196 199 197 198
268 328 327 358 359 340 353 342 338 318 308 307 323 0 9 289 293 333 210 209 212 212 205 203 202 198 195 196 195 199 202 202
317 319 348 342 347 335 324 319 304 290 296 309 296 317 315 323 299 303 239 238 231 219 197 203 208 206 203 201 200 199 203 207
294 302 348 323 314 305 296 290 296 296 293 296 292 295 291 300 288 305 326 212 211 205 197 201 213 207 211 210 209 207 206 206
319 323 316 300 287 276 281 287 282 277 274 279 279 263 267 275 275 275 28 191 205 209 203 182 212 215 221 221 217 213 213 210
294 277 271 262 264 274 283 278 275 267 254 259 273 262 255 257 259 253 273 290 220 226 244 223 213 217 233 238 229 221 219 213
271 250 238 244 270 271 270 275 263 236 256 276 245 259 263 265 269 232 259 253 241 246 254 226 221 213 227 234 232 227 223 215
302 34 265 173 247 246 268 287 197 227 261 268 260 253 260 266 272 278 240 252 243 244 248 237 218 226 224 224 229 225 223 217
323 339 325 323 267 287 301 260 273 219 221 227 231 238 248 253 245 249 256 246 238 236 250 257 239 231 235 221 219 223 223 224
303 308 311 297 281 283 280 292 290 275 233 234 239 238 252 251 249 238 241 243 247 242 244 257 262 242 227 217 216 220 223 223
284 282 324 323 319 316 306 299 286 279 276 263 265 258 262 250 242 261 253 240 241 242 240 249 260 254 231 222 218 218 220 221
279 335 336 324 305 292 280 273 266 261 252 248 238 241 245 237 251 261 260 248 240 240 237 239 252 259 251 234 222 221 219 226
325 323 300 288 286 292 295 291 323 245 236 233 225 224 227 238 271 276 269 262 259 250 247 248 259 258 254 250 242 227 221 221
302 295 291 296 294 279 293 340 1 2 316 180 185 217 233 246 248 249 261 276 279 271 253 252 260 256 248 249 245 234 230 220
Wind_Speed_850mb
8 6 11 10 10 6 17 32 31 11 21 24 21 27 19 19 11 12 7 6 25 35 38 38 39 41 39 36 35 37 36 35
3 16 23 26 31 14 7 18 13 14 14 25 22 24 17 24 9 12 16 13 13 35 38 38 39 43 42 39 40 38 36 33
5 17 23 27 41 9 9 10 26 23 15 25 34 32 26 19 17 7 25 25 16 32 41 41 41 42 42 38 38 40 36 32
9 20 20 21 29 15 10 13 42 28 11 16 38 28 26 11 3 7 23 27 21 21 42 43 40 42 45 40 37 39 37 33
16 21 23 17 23 19 16 21 29 28 7 34 39 20 10 14 8 6 20 27 22 20 41 43 41 41 43 43 40 40 38 35
14 14 17 37 18 22 37 12 28 31 10 6 36 25 14 3 16 6 18 26 19 14 30 47 45 42 44 45 41 40 39 36
12 8 16 35 21 37 18 18 22 17 24 41 38 30 16 18 10 16 24 34 24 20 22 49 46 46 46 47 45 43 42 38
10 14 12 20 28 37 27 27 14 29 28 26 25 14 16 14 19 13 26 38 29 25 25 50 49 48 48 50 52 51 48 43
25 39 23 24 20 34 24 14 29 24 33 24 24 24 24 23 25 28 23 39 32 27 34 52 54 50 51 55 57 56 53 48
34 40 24 18 43 19 34 34 42 43 41 42 29 20 29 29 24 33 29 44 39 33 31 43 49 49 52 56 59 59 57 51
38 38 34 34 27 31 38 42 45 44 43 41 31 27 27 30 28 31 9 18 34 34 36 36 47 40 39 52 60 61 61 56
39 45 43 27 33 30 38 47 48 44 45 33 34 27 32 34 34 40 13 8 16 22 37 42 50 47 48 44 54 61 64 60
40 41 26 50 12 15 51 58 34 14 9 15 26 28 30 24 14 23 33 16 17 22 29 43 54 46 58 52 49 51 59 60
21 15 16 16 14 24 26 25 13 16 22 25 30 28 25 28 29 20 23 29 23 25 29 38 53 59 53 58 57 54 55 57
17 24 15 6 18 14 34 36 39 33 37 42 42 41 42 44 37 38 36 31 37 30 43 43 42 75 60 60 68 66 63 60
18 22 27 26 28 26 46 31 37 37 50 53 52 51 44 48 33 35 38 45 51 45 52 60 56 47 67 76 71 75 78 74
27 26 13 14 21 25 42 42 39 49 46 42 41 35 31 37 33 35 43 40 48 48 51 63 61 56 69 76 75 81 77 82
14 18 24 25 35 34 40 44 58 57 55 50 42 32 27 32 28 32 45 46 47 51 52 51 67 69 63 82 82 74 79 85
22 25 22 24 24 17 36 42 48 69 51 36 31 29 28 23 29 33 27 35 43 51 57 62 67 74 70 69 76 93 74 84
28 22 20 4 32 19 19 16 31 36 32 25 18 21 28 28 35 30 32 40 51 57 62 66 58 76 73 78 77 91 99 83
Wind_Direction_850mb
153 189 215 251 273 312 57 53 28 44 49 77 110 92 108 77 114 154 175 185 196 185 177 174 171 168 164 159 166 166 165 160
76 271 265 254 285 295 23 56 74 33 46 77 99 92 102 134 135 186 194 194 163 201 189 181 178 176 173 168 169 172 171 169
276 265 264 273 262 222 64 25 20 96 71 106 106 95 101 81 138 230 189 186 183 200 198 188 185 183 179 178 174 173 175 175
259 266 272 278 279 119 97 42 23 36 88 75 99 99 79 42 136 133 200 193 193 181 200 195 188 186 184 183 181 178 177 180
274 289 307 314 46 43 39 31 49 25 67 85 64 54 80 26 217 215 213 205 193 187 196 198 188 188 188 187 188 185 183 184
283 279 291 10 12 45 41 10 20 23 20 254 352 15 8 261 223 187 223 197 215 212 203 197 189 187 190 192 193 192 191 192
266 342 292 6 11 14 28 19 349 356 322 312 326 332 333 306 306 183 200 205 222 231 216 201 195 190 190 193 196 199 197 198
268 328 327 358 359 340 353 342 338 318 308 307 323 0 9 289 293 333 210 209 212 212 205 203 202 198 195 196 195 199 202 202
317 319 348 342 347 335 324 319 304 290 296 309 296 317 315 323 299 303 239 238 231 219 197 203 208 206 203 201 200 199 203 207
294 302 348 323 314 305 296 290 296 296 293 296 292 295 291 300 288 305 326 212 211 205 197 201 213 207 211 210 209 207 206 206
319 323 316 300 287 276 281 287 282 277 274 279 279 263 267 275 275 275 28 191 205 209 203 182 212 215 221 221 217 213 213 210
294 277 271 262 264 274 283 278 275 267 254 259 273 262 255 257 259 253 273 290 220 226 244 223 213 217 233 238 229 221 219 213
271 250 238 244 270 271 270 275 263 236 256 276 245 259 263 265 269 232 259 253 241 246 254 226 221 213 227 234 232 227 223 215
302 34 265 173 247 246 268 287 197 227 261 268 260 253 260 266 272 278 240 252 243 244 248 237 218 226 224 224 229 225 223 217
323 339 325 323 267 287 301 260 273 219 221 227 231 238 248 253 245 249 256 246 238 236 250 257 239 231 235 221 219 223 223 224
303 308 311 297 281 283 280 292 290 275 233 234 239 238 252 251 249 238 241 243 247 242 244 257 262 242 227 217 216 220 223 223
284 282 324 323 319 316 306 299 286 279 276 263 265 258 262 250 242 261 253 240 241 242 240 249 260 254 231 222 218 218 220 221
279 335 336 324 305 292 280 273 266 261 252 248 238 241 245 237 251 261 260 248 240 240 237 239 252 259 251 234 222 221 219 226
325 323 300 288 286 292 295 291 323 245 236 233 225 224 227 238 271 276 269 262 259 250 247 248 259 258 254 250 242 227 221 221
302 295 291 296 294 279 293 340 1 2 316 180 185 217 233 246 248 249 261 276 279 271 253 252 260 256 248 249 245 234 230 220